Weather History for Kinston, NC

Change the Weather History Date:

Tuesday, February 12, 2013

  Actual Average Record
Temperature  
Mean Temperature 57 °F -  
Max Temperature 65 °F 55 °F 75 °F (1984)
Min Temperature 49 °F 36 °F 11 °F (1968)
Degree Days  
Heating Degree Days 8    
Growing Degree Days 7 (Base 50)    
Moisture  
Dew Point 44 °F    
Average Humidity 68    
Maximum Humidity 94    
Minimum Humidity 21    
Precipitation  
Precipitation 0.01 in - - ()
Sea Level Pressure  
Sea Level Pressure 29.99 in    
Wind  
Wind Speed 6 mph (West)    
Max Wind Speed 12 mph    
Max Gust Speed 17 mph    
Visibility 10 miles    
Events Rain    
Averages and records for this station are not official NWS values.
T = Trace of Precipitation, MM = Missing Value Source: NWS Daily Summary

Daily Weather History Graph

Daily Weather History Graph

Search for Another Location

Airport:

Trip Planner

Search our weather history database for the weather conditions in past years. The results will help you decide how hot, cold, wet, or windy it might be!

Date:

Astronomy

Feb. 12, 2013 Rise Set
Actual Time 6:59 AM EST 5:50 PM EST
Civil Twilight 6:33 AM EST 6:16 PM EST
Nautical Twilight 6:03 AM EST 6:46 PM EST
Astronomical Twilight 5:34 AM EST 7:15 PM EST
Moon 8:03 AM EST (2/12) 8:39 PM EST (2/12)
Length of Visible Light 11h 42m
Length of Day
10h 50m
Waxing Crescent, 7% of the Moon is Illuminated
Feb 12
Waxing Crescent
Feb 17
First Quarter
Feb 25
Full
Mar 4
Last Quarter
Mar 11
New

Hourly Weather History & Observations

Time (EST) Temp. Dew Point Humidity Pressure Visibility Wind Dir Wind Speed Gust Speed Precip Events Conditions
12:15 AM 61.5 °F 58.1 °F 89% 29.95 in 10.0 mi SW 9.2 mph - N/A   Clear
12:35 AM 61.3 °F 57.4 °F 87% 29.95 in 10.0 mi WSW 9.2 mph 16.1 mph N/A   Clear
12:55 AM 61.2 °F 56.8 °F 86% 29.94 in 10.0 mi WSW 8.1 mph - N/A   Clear
1:15 AM 61.0 °F 56.3 °F 85% 29.95 in 10.0 mi SW 6.9 mph - N/A   Clear
1:35 AM 60.4 °F 55.6 °F 84% 29.96 in 10.0 mi WSW 10.4 mph 16.1 mph N/A   Clear
1:55 AM 60.4 °F 54.3 °F 80% 29.96 in 10.0 mi WSW 10.4 mph - N/A   Clear
2:15 AM 59.9 °F 54.5 °F 82% 29.96 in 10.0 mi SW 8.1 mph - N/A   Clear
2:35 AM 59.9 °F 54.0 °F 81% 29.97 in 10.0 mi WSW 11.5 mph 17.3 mph N/A   Clear
2:55 AM 59.5 °F 53.4 °F 80% 29.98 in 10.0 mi WSW 8.1 mph 16.1 mph N/A   Clear
3:15 AM 59.0 °F 53.1 °F 81% 29.97 in 10.0 mi WSW 9.2 mph - N/A   Clear
3:35 AM 58.5 °F 53.1 °F 82% 29.97 in 10.0 mi WSW 8.1 mph - N/A   Clear
3:55 AM 58.1 °F 52.9 °F 83% 29.98 in 10.0 mi WSW 5.8 mph - N/A   Clear
4:15 AM 57.6 °F 52.9 °F 84% 29.98 in 10.0 mi WSW 6.9 mph - N/A   Clear
4:35 AM 57.2 °F 52.7 °F 85% 29.99 in 10.0 mi WSW 4.6 mph - N/A   Clear
4:55 AM 56.5 °F 52.2 °F 85% 29.98 in 10.0 mi WSW 5.8 mph - N/A   Clear
5:15 AM 55.8 °F 51.8 °F 87% 29.99 in 10.0 mi West 4.6 mph - N/A   Clear
5:35 AM 55.4 °F 51.3 °F 86% 29.99 in 10.0 mi West 4.6 mph - N/A   Clear
5:55 AM 54.9 °F 50.9 °F 86% 29.99 in 10.0 mi West 4.6 mph - N/A   Clear
7:56 AM 51.8 °F 50.0 °F 94% 30.05 in 7.0 mi Calm Calm - N/A   Clear
9:56 AM 55.4 °F 35.6 °F 47% 30.07 in 10.0 mi WNW 6.9 mph - N/A   Clear
10:56 AM 55.4 °F 33.8 °F 44% 30.09 in 10.0 mi NW 5.8 mph - N/A   Clear
11:56 AM 60.8 °F 30.2 °F 31% 30.07 in 10.0 mi NNW 6.9 mph - N/A   Clear
12:56 PM 62.6 °F 26.6 °F 26% 30.02 in 10.0 mi WNW 9.2 mph - N/A   Clear
1:56 PM 64.4 °F 26.6 °F 24% 30.00 in 10.0 mi WSW 4.6 mph - N/A   Clear
2:56 PM 64.4 °F 23.0 °F 21% 29.96 in 10.0 mi NW 5.8 mph - N/A   Clear
3:56 PM 64.4 °F 24.8 °F 22% 29.99 in 10.0 mi West 3.5 mph - N/A   Clear
4:56 PM 62.6 °F 28.4 °F 27% 29.98 in 10.0 mi Calm Calm - N/A   Clear
5:56 PM 57.2 °F 33.8 °F 41% 29.99 in 10.0 mi North 3.5 mph - N/A   Clear
6:56 PM 53.6 °F 37.4 °F 54% 30.00 in 10.0 mi Calm Calm - N/A   Clear
7:56 PM 51.8 °F 39.2 °F 62% 29.97 in 10.0 mi Calm Calm - N/A   Clear
8:15 PM 51.3 °F 40.6 °F 67% 29.97 in 10.0 mi Calm Calm - N/A   Clear
8:35 PM 52.0 °F 39.4 °F 62% 29.96 in 10.0 mi Calm Calm - N/A   Clear
8:56 PM 51.8 °F 42.8 °F 71% 29.94 in 10.0 mi Calm Calm - N/A   Clear
9:15 PM 51.8 °F 40.8 °F 66% 29.96 in 10.0 mi Calm Calm - N/A   Clear
9:35 PM 52.0 °F 39.6 °F 63% 29.98 in 10.0 mi Calm Calm - N/A   Clear
9:55 PM 51.8 °F 38.8 °F 61% 29.99 in 10.0 mi Calm Calm - N/A   Clear
10:15 PM 50.9 °F 43.0 °F 74% 29.99 in 10.0 mi Calm Calm - N/A   Clear
10:35 PM 50.2 °F 43.2 °F 77% 29.99 in 10.0 mi Calm Calm - N/A   Clear
10:55 PM 50.5 °F 41.9 °F 72% 30.01 in 10.0 mi Calm Calm - N/A   Clear
11:15 PM 50.9 °F 41.2 °F 69% 29.99 in 10.0 mi Calm Calm - N/A   Clear
11:35 PM 50.4 °F 43.3 °F 77% 29.99 in 10.0 mi Calm Calm - N/A Rain Light Rain
11:55 PM 49.6 °F 45.0 °F 84% 29.99 in 10.0 mi Calm Calm - 0.01 in Rain Light Rain